EHI
20 19 16 12 9 8 7 6 6 6 6 4 2 1 1 1 1 0 0 0 0 0 0 0 0 0 0 0 0 0 0 0 0 0 0 0 0 0 0 0 0 0 0
20 20 17 13 10 9 8 7 7 6 5 4 2 1 1 0 0 0 0 0 0 0 0 0 0 0 0 0 0 0 0 0 0 0 0 0 0 0 0 0 0 0 0
20 20 17 14 11 9 9 8 7 6 4 3 2 1 0 0 0 0 0 0 0 0 0 0 0 0 0 0 0 0 0 0 0 0 0 0 0 0 0 0 0 0 0
21 19 17 14 11 10 10 10 8 6 5 3 2 0 0 0 0 0 0 0 0 0 0 0 0 0 0 0 0 0 0 0 0 0 0 0 0 0 0 0 0 0 0
22 20 17 14 12 10 9 9 7 6 6 5 3 1 0 0 0 0 0 0 0 0 0 0 0 0 0 0 0 0 0 0 0 0 0 0 0 0 0 0 0 0 0
20 17 15 13 11 9 8 6 5 5 6 5 3 1 0 0 0 0 0 0 0 0 0 0 0 0 0 0 0 0 0 0 0 0 0 0 0 0 0 0 0 0 0
17 15 12 12 10 8 5 4 5 5 4 3 2 1 0 0 0 0 0 0 0 0 0 0 0 0 0 0 0 0 0 0 0 0 0 0 0 0 0 0 0 0 0
18 16 14 13 12 9 6 5 4 3 1 1 1 0 0 0 0 0 0 0 0 0 0 0 0 0 0 0 0 0 0 0 0 0 0 0 0 0 0 0 0 0 0
19 17 15 14 12 10 7 4 2 1 0 0 0 0 0 0 0 0 0 0 0 0 0 0 0 0 0 0 0 0 0 0 0 0 0 0 0 0 0 0 0 0 0
16 14 12 11 10 8 5 3 1 0 0 0 0 0 0 0 0 0 0 0 0 0 0 0 0 0 0 0 0 0 0 0 0 0 0 0 0 0 0 0 0 0 0
13 11 10 8 7 5 4 2 1 0 0 0 0 0 0 0 0 0 0 0 0 0 0 0 0 0 0 0 0 0 0 0 0 0 0 0 0 0 0 0 0 0 0
11 10 8 6 4 3 3 2 1 0 0 0 0 0 0 0 0 0 0 0 0 0 0 0 0 0 0 0 0 0 0 0 0 0 0 0 0 0 0 0 0 0 0
10 9 7 5 4 3 3 1 0 0 0 0 0 0 0 0 0 0 0 0 0 0 0 0 0 0 0 0 0 0 0 0 0 0 0 0 0 0 0 0 0 0 0
11 9 7 6 5 3 2 1 0 0 0 0 0 0 0 0 0 0 0 0 0 0 0 0 0 0 0 0 0 0 0 0 0 0 0 0 0 0 0 0 0 0 0
10 9 7 6 4 2 1 0 0 0 0 0 0 0 0 0 0 0 0 0 0 0 0 0 0 0 0 0 0 0 0 0 0 0 0 0 0 0 0 0 0 0 0
10 9 7 5 2 0 0 0 0 0 0 0 0 0 0 0 0 0 0 0 0 0 0 0 0 0 0 0 0 0 0 0 0 0 0 0 0 0 0 0 0 0 0
9 8 5 3 1 0 0 0 0 0 0 0 0 0 0 0 0 0 0 0 0 0 0 0 0 0 0 0 0 0 0 0 0 0 0 0 0 0 0 0 0 0 0
7 6 3 1 0 0 0 0 0 0 0 0 0 0 0 0 0 0 0 0 0 0 0 0 0 0 0 0 0 0 0 0 0 0 0 0 0 0 0 0 0 0 0
5 4 2 0 0 0 0 0 0 0 0 0 0 0 0 0 0 0 0 0 0 0 0 0 0 0 0 0 0 0 0 0 0 0 0 0 0 0 0 0 0 0 0
3 2 0 0 0 0 0 0 0 0 0 0 0 0 0 0 0 0 0 0 0 0 0 0 0 0 0 0 0 0 0 0 0 0 0 0 0 0 0 0 0 0 0
1 0 0 0 0 0 0 0 0 0 0 0 0 0 0 0 0 0 0 0 0 0 0 0 0 0 0 0 0 0 0 0 0 0 0 0 0 0 0 0 0 0 0
0 0 0 0 0 0 0 0 0 0 0 0 0 0 0 0 0 0 0 0 0 0 0 0 0 0 0 0 0 0 0 0 0 0 0 0 0 0 0 0 0 0 0
0 0 0 0 0 0 0 0 0 0 0 0 0 0 0 0 0 0 0 0 0 0 0 0 0 0 0 0 0 0 0 0 0 0 0 0 0 0 0 0 0 0 0
0 0 0 0 0 0 0 0 0 0 0 0 0 0 0 0 0 0 0 0 0 0 0 0 0 0 0 0 0 0 0 0 0 0 0 0 0 0 0 0 0 0 0
0 0 0 0 0 0 0 0 0 0 0 0 0 0 0 0 0 0 0 0 0 0 0 0 0 0 0 0 0 0 0 0 0 0 0 0 0 0 0 0 0 0 0
0 0 0 0 0 0 0 0 0 0 0 0 0 0 0 0 0 0 0 0 0 0 0 0 0 0 0 0 0 0 0 0 0 0 0 0 0 0 0 0 0 0 0
Wind_Speed
3 2 2 2 2 2 1 1 1 1 1 1 1 2 2 2 1 1 1 0 1 1 1 1 1 1 1 1 1 1 1 2 2 1 0 1 2 2 3 2 3 3 4
4 3 3 2 2 2 1 1 1 2 2 2 2 2 2 2 2 2 1 1 1 0 0 1 0 0 0 0 1 1 1 1 2 1 1 1 2 2 2 3 3 3 4
4 4 3 3 2 2 2 2 3 3 3 3 3 3 2 2 2 1 1 1 2 1 1 1 1 1 1 1 1 1 1 1 1 1 0 1 1 2 2 3 3 3 4
5 4 4 3 2 2 3 3 3 3 3 3 3 3 3 3 2 2 2 3 3 3 3 3 3 3 3 2 2 2 2 2 2 1 1 1 1 2 2 2 2 3 3
5 5 3 3 3 3 4 3 3 4 4 3 4 4 4 4 3 3 3 4 4 5 5 4 5 6 7 5 3 2 3 2 2 2 2 2 1 1 1 1 1 1 3
5 4 4 4 4 4 4 3 4 4 4 4 5 5 5 5 7 7 5 4 5 5 5 5 6 7 9 11 11 9 6 4 3 2 2 2 1 1 1 0 0 1 1
5 4 4 5 5 4 4 5 4 4 4 5 5 5 6 7 9 9 8 6 6 5 5 5 5 6 6 6 9 11 11 10 7 3 3 1 1 1 0 1 1 2 1
5 4 4 5 5 5 5 5 4 4 4 5 5 5 5 6 8 8 9 7 7 7 6 5 5 5 5 5 6 7 7 6 5 4 3 2 2 1 1 1 2 2 2
5 5 5 5 6 6 5 5 4 5 5 5 4 5 5 6 8 7 7 5 6 6 6 6 5 5 6 6 6 6 6 5 7 9 7 7 7 7 4 3 3 3 2
4 4 5 5 6 6 6 5 4 5 5 5 6 5 5 5 7 7 7 4 5 5 5 5 8 6 6 6 5 5 5 4 4 5 6 7 6 7 7 3 2 2 1
5 5 5 6 6 6 6 5 5 6 6 6 6 5 5 6 6 8 7 4 4 4 4 4 4 8 8 7 6 4 4 3 4 4 4 5 5 5 5 4 3 2 2
6 6 5 5 5 6 6 5 5 6 6 5 5 5 4 5 6 7 8 7 5 4 3 3 4 7 8 8 6 6 6 5 4 4 4 4 4 4 4 4 5 4 3
7 6 6 6 5 5 6 6 5 4 4 3 3 3 3 3 4 7 7 7 7 4 3 6 7 8 7 7 9 9 6 4 4 4 4 3 3 3 3 3 5 5 6
7 6 6 6 6 5 4 4 4 4 4 3 3 3 2 2 2 3 3 4 6 5 4 6 8 9 7 6 6 6 5 4 3 3 3 3 3 3 4 4 4 3 4
7 6 5 5 6 5 4 3 3 3 2 3 2 2 3 2 1 2 3 2 2 3 4 4 4 4 5 5 4 5 4 4 4 3 3 3 3 3 3 3 3 3 3
7 6 5 4 4 5 5 5 7 5 6 6 4 4 2 2 3 5 5 5 5 6 5 4 4 4 3 3 3 3 4 4 3 3 3 3 3 3 3 3 3 3 3
6 6 5 5 5 5 5 5 4 5 7 6 5 6 5 5 5 6 6 7 6 6 5 4 3 2 2 2 2 2 2 2 2 3 3 3 2 2 2 3 2 2 2
6 6 6 4 5 4 4 4 4 4 3 2 3 4 5 5 6 6 6 6 4 4 3 3 2 2 1 1 1 1 2 2 2 2 2 2 2 2 2 2 2 2 1
6 5 4 4 4 4 4 4 4 4 4 3 2 2 3 4 5 5 4 3 3 2 2 1 1 1 1 1 1 1 1 1 2 1 1 2 2 1 1 1 1 1 1
5 8 7 5 5 4 4 4 4 4 3 3 2 2 2 2 2 2 2 2 2 2 1 1 1 1 1 1 1 1 1 1 1 1 1 1 1 1 1 1 1 1 1
5 6 8 6 5 5 4 4 4 4 3 2 2 2 3 2 2 2 1 1 2 2 2 1 1 1 1 1 1 1 0 0 0 0 0 1 1 1 1 2 2 2 2
5 5 4 5 4 4 4 4 4 4 3 3 2 2 4 2 2 1 1 2 2 2 2 2 2 2 2 2 2 1 1 1 1 1 1 1 1 1 2 2 2 2 2
5 5 5 4 4 5 5 4 4 4 4 3 3 2 3 3 2 2 2 2 2 2 2 2 2 2 2 2 2 2 2 3 3 2 2 2 2 2 2 2 3 3 3
5 5 5 5 4 4 4 4 4 4 4 4 3 3 3 3 3 3 3 2 2 2 2 2 2 3 4 3 2 2 3 3 3 3 3 3 3 3 3 3 4 4 4
5 5 5 5 5 4 4 4 4 4 4 4 4 3 3 3 3 3 3 2 3 3 3 3 3 3 5 5 4 3 3 3 3 3 3 3 4 4 4 5 4 5 5
4 5 4 4 4 4 4 4 4 4 4 4 4 4 3 3 3 3 3 3 3 3 3 3 4 4 5 5 5 4 3 3 3 4 3 3 4 4 5 4 6 5 6
Wind_Direction
145 137 115 107 102 94 85 76 78 62 70 77 73 63 59 49 50 75 59 106 157 214 227 200 246 261 228 240 203 181 189 187 212 270 320 3 21 26 22 31 41 50 49
143 131 121 108 100 94 80 73 78 80 76 80 80 71 62 55 56 73 56 48 85 93 89 103 317 335 21 29 124 135 162 182 183 233 326 16 22 26 26 31 40 50 55
135 130 125 120 115 105 86 81 75 74 70 68 74 71 58 50 51 60 80 75 71 59 52 66 43 66 56 48 78 94 109 125 154 177 256 31 37 27 29 37 46 42 53
137 136 136 138 133 119 98 84 78 76 69 64 63 59 53 52 51 58 73 80 71 61 57 61 63 71 71 59 62 64 83 89 96 110 90 49 40 20 35 36 39 35 36
142 144 148 135 119 107 96 87 80 76 70 69 67 56 49 52 50 62 68 74 73 69 59 57 65 71 73 71 73 68 81 89 90 89 79 61 41 29 11 356 42 42 50
143 146 135 122 112 105 98 88 82 78 76 74 68 61 55 55 56 61 69 70 73 74 67 59 61 58 67 70 71 70 72 82 89 84 76 73 25 342 329 1 93 54 54
143 139 132 126 118 112 106 92 82 75 77 73 66 66 64 56 57 62 67 75 76 70 65 62 61 56 58 67 66 64 60 60 69 95 90 65 22 331 38 74 75 70 68
137 134 129 125 117 105 98 92 82 75 75 72 67 69 71 60 60 65 69 72 74 67 60 62 68 56 58 71 75 68 59 49 52 65 75 51 43 45 87 109 113 98 79
135 135 132 127 121 114 105 100 96 92 81 73 68 64 65 54 56 66 75 79 74 63 56 55 63 61 56 68 80 77 62 45 53 64 65 58 55 55 67 89 85 93 72
128 127 123 118 118 117 114 106 97 97 92 84 72 61 62 57 53 64 72 85 82 71 56 51 56 61 56 60 79 84 73 42 40 44 45 43 46 49 52 60 87 100 87
120 115 112 115 117 117 110 104 107 101 93 84 78 62 55 53 53 58 66 82 92 86 71 55 50 59 64 64 70 74 82 71 55 53 49 43 41 40 40 41 44 72 84
123 121 115 111 114 115 113 108 107 107 100 91 83 68 49 41 48 57 65 75 87 90 80 66 60 65 66 64 66 66 68 65 62 57 50 39 32 26 26 35 46 51 50
120 117 113 105 97 105 115 118 112 107 109 104 96 84 62 45 43 53 63 70 79 82 81 82 77 73 67 61 57 57 57 60 63 61 51 34 20 17 26 37 43 49 55
126 124 120 116 107 99 100 109 114 115 116 114 112 104 84 59 47 48 55 66 72 75 73 70 70 67 64 59 52 48 50 54 64 61 47 35 33 41 42 35 39 37 50
131 128 124 122 123 114 98 84 105 102 132 139 137 135 128 111 68 97 100 84 84 88 88 69 60 55 55 52 49 44 43 48 52 50 55 53 45 46 41 31 37 44 53
137 137 135 132 126 124 117 89 59 75 89 104 116 125 104 113 121 105 93 90 93 100 89 79 73 68 65 60 57 48 42 40 41 51 56 54 52 50 48 41 43 49 51
141 142 138 138 137 138 135 132 116 69 68 80 96 110 113 116 113 106 98 91 87 96 88 89 85 79 71 68 63 56 47 37 39 54 58 52 51 52 52 45 39 39 37
132 137 138 139 140 140 139 136 134 133 119 74 58 92 110 115 112 106 107 96 77 69 88 101 100 92 86 82 75 62 55 52 52 48 48 46 44 48 45 37 35 33 25
136 137 135 131 130 130 131 129 127 128 126 119 100 76 89 104 96 89 103 99 113 109 109 113 120 123 115 103 81 67 65 57 49 43 41 40 42 49 39 28 23 17 12
136 142 139 137 135 135 135 135 134 134 132 133 138 136 126 110 104 92 93 110 125 136 145 152 163 162 154 148 123 100 77 65 53 41 20 12 21 32 3 343 337 331 321
136 144 143 140 145 149 148 148 147 146 149 156 170 174 163 155 159 156 152 163 175 182 184 193 202 198 184 174 167 158 160 246 229 240 286 311 321 317 306 302 305 304 303
139 143 147 149 150 153 152 151 152 157 166 173 173 163 172 174 178 184 198 208 208 206 202 202 214 217 210 209 207 201 215 242 253 254 259 269 273 278 285 289 293 297 297
143 145 146 148 152 153 153 157 165 173 180 186 185 181 184 197 199 206 216 219 213 213 203 198 208 222 225 224 222 220 231 245 247 240 247 263 273 279 283 282 285 287 287
150 154 156 158 160 166 171 174 179 185 190 192 195 198 201 206 210 215 217 215 216 223 217 209 216 227 235 239 235 234 239 247 244 236 235 250 265 273 275 277 279 282 282
156 161 166 170 174 179 181 181 185 191 194 195 197 200 204 206 210 213 215 213 214 223 233 233 233 238 242 248 251 252 244 241 244 244 240 246 257 262 267 273 275 279 279
162 168 172 173 177 181 182 184 189 191 193 195 194 194 198 203 208 211 211 213 217 224 233 239 240 243 252 259 262 261 255 253 250 241 237 245 255 261 266 267 273 273 277